Year,Month,Day,Hour,Minute,Value (Times are PST for temperature in C)
2016,07,19,00,00,18.60
2016,07,19,00,01,18.60
2016,07,19,00,02,18.60
2016,07,19,00,03,18.60
2016,07,19,00,04,18.60
2016,07,19,00,05,18.60
2016,07,19,00,06,18.60
2016,07,19,00,07,18.60
2016,07,19,00,08,18.60
2016,07,19,00,09,18.60
2016,07,19,00,10,18.60
2016,07,19,00,11,18.60
2016,07,19,00,12,18.60
2016,07,19,00,13,18.60
2016,07,19,00,14,18.60
2016,07,19,00,15,18.60
2016,07,19,00,16,18.60
2016,07,19,00,17,18.60
2016,07,19,00,18,18.60
2016,07,19,00,19,18.60
2016,07,19,00,20,18.60
2016,07,19,00,21,18.60
2016,07,19,00,22,18.60
2016,07,19,00,23,18.60
2016,07,19,00,24,18.60
2016,07,19,00,25,18.60
2016,07,19,00,26,18.60
2016,07,19,00,27,18.60
2016,07,19,00,28,18.60
2016,07,19,00,29,18.50
2016,07,19,00,30,18.50
2016,07,19,00,31,18.50
2016,07,19,00,32,18.50
2016,07,19,00,33,18.50
2016,07,19,00,34,18.50
2016,07,19,00,35,18.50
2016,07,19,00,36,18.50
2016,07,19,00,37,18.50
2016,07,19,00,38,18.50
2016,07,19,00,39,18.50
2016,07,19,00,40,18.50
2016,07,19,00,41,18.50
2016,07,19,00,42,18.50
2016,07,19,00,43,18.50
2016,07,19,00,44,18.40
2016,07,19,00,45,18.40
2016,07,19,00,46,18.40
2016,07,19,00,47,18.40
2016,07,19,00,48,18.40
2016,07,19,00,49,18.40
2016,07,19,00,50,18.40
2016,07,19,00,51,18.40
2016,07,19,00,52,18.30
2016,07,19,00,53,18.30
2016,07,19,00,54,18.30
2016,07,19,00,55,18.30
2016,07,19,00,56,18.30
2016,07,19,00,57,18.30
2016,07,19,00,58,18.30
2016,07,19,00,59,18.30
2016,07,19,01,00,18.30
2016,07,19,01,01,18.20
2016,07,19,01,02,18.20
2016,07,19,01,03,18.20
2016,07,19,01,04,18.20
2016,07,19,01,05,18.20
2016,07,19,01,06,18.20
2016,07,19,01,07,18.20
2016,07,19,01,08,18.20
2016,07,19,01,09,18.20
2016,07,19,01,10,18.20
2016,07,19,01,11,18.20
2016,07,19,01,12,18.20
2016,07,19,01,13,18.10
2016,07,19,01,14,18.10
2016,07,19,01,15,18.10
2016,07,19,01,16,18.10
2016,07,19,01,17,18.10
2016,07,19,01,18,18.00
2016,07,19,01,19,17.90
2016,07,19,01,20,17.90
2016,07,19,01,21,17.90
2016,07,19,01,22,17.90
2016,07,19,01,23,17.90
2016,07,19,01,24,17.90
2016,07,19,01,25,17.90
2016,07,19,01,26,17.90
2016,07,19,01,27,17.90
2016,07,19,01,28,17.90
2016,07,19,01,29,17.90
2016,07,19,01,30,17.90
2016,07,19,01,31,17.80
2016,07,19,01,32,17.80
2016,07,19,01,33,17.80
2016,07,19,01,34,17.80
2016,07,19,01,35,17.80
2016,07,19,01,36,17.80
2016,07,19,01,37,17.80
2016,07,19,01,38,17.70
2016,07,19,01,39,17.70
2016,07,19,01,40,17.70
2016,07,19,01,41,17.70
2016,07,19,01,42,17.70
2016,07,19,01,43,17.70
2016,07,19,01,44,17.60
2016,07,19,01,45,17.60
2016,07,19,01,46,17.60
2016,07,19,01,47,17.60
2016,07,19,01,48,17.60
2016,07,19,01,49,17.50
2016,07,19,01,50,17.50
2016,07,19,01,51,17.50
2016,07,19,01,52,17.50
2016,07,19,01,53,17.40
2016,07,19,01,54,17.40
2016,07,19,01,55,17.40
2016,07,19,01,56,17.40
2016,07,19,01,57,17.30
2016,07,19,01,58,17.30
2016,07,19,01,59,17.30
2016,07,19,02,00,17.30
2016,07,19,02,01,17.30
2016,07,19,02,02,17.30
2016,07,19,02,03,17.30
2016,07,19,02,04,17.30
2016,07,19,02,05,17.30
2016,07,19,02,06,17.30
2016,07,19,02,07,17.30
2016,07,19,02,08,17.20
2016,07,19,02,09,17.20
2016,07,19,02,10,17.20
2016,07,19,02,11,17.20
2016,07,19,02,12,17.20
2016,07,19,02,13,17.20
2016,07,19,02,14,17.20
2016,07,19,02,15,17.20
2016,07,19,02,16,17.20
2016,07,19,02,17,17.10
2016,07,19,02,18,17.10
2016,07,19,02,19,17.10
2016,07,19,02,20,17.10
2016,07,19,02,21,17.10
2016,07,19,02,22,17.10
2016,07,19,02,23,17.10
2016,07,19,02,24,17.10
2016,07,19,02,25,17.10
2016,07,19,02,26,17.10
2016,07,19,02,27,17.10
2016,07,19,02,28,17.10
2016,07,19,02,29,17.10
2016,07,19,02,30,17.10
2016,07,19,02,31,17.10
2016,07,19,02,32,17.10
2016,07,19,02,33,17.10
2016,07,19,02,34,17.10
2016,07,19,02,35,17.10
2016,07,19,02,36,17.10
2016,07,19,02,37,17.10
2016,07,19,02,38,17.10
2016,07,19,02,39,17.10
2016,07,19,02,40,17.10
2016,07,19,02,41,17.10
2016,07,19,02,42,17.10
2016,07,19,02,43,17.10
2016,07,19,02,44,17.00
2016,07,19,02,45,17.10
2016,07,19,02,46,17.10
2016,07,19,02,47,17.00
2016,07,19,02,48,17.00
2016,07,19,02,49,17.00
2016,07,19,02,50,17.00
2016,07,19,02,51,17.00
2016,07,19,02,52,17.00
2016,07,19,02,53,17.00
2016,07,19,02,54,17.00
2016,07,19,02,55,17.00
2016,07,19,02,56,17.00
2016,07,19,02,57,17.00
2016,07,19,02,58,17.00
2016,07,19,02,59,17.00
2016,07,19,03,00,17.00
2016,07,19,03,01,17.00
2016,07,19,03,02,17.00
2016,07,19,03,03,17.00
2016,07,19,03,04,17.00
2016,07,19,03,05,17.00
2016,07,19,03,06,17.00
2016,07,19,03,07,17.00
2016,07,19,03,08,17.00
2016,07,19,03,09,17.00
2016,07,19,03,10,17.00
2016,07,19,03,11,17.00
2016,07,19,03,12,17.00
2016,07,19,03,13,17.00
2016,07,19,03,14,17.00
2016,07,19,03,15,17.00
2016,07,19,03,16,17.00
2016,07,19,03,17,17.00
2016,07,19,03,18,17.00
2016,07,19,03,19,17.00
2016,07,19,03,20,17.00
2016,07,19,03,21,17.00
2016,07,19,03,22,17.00
2016,07,19,03,23,17.00
2016,07,19,03,24,17.00
2016,07,19,03,25,17.00
2016,07,19,03,26,17.00
2016,07,19,03,27,17.00
2016,07,19,03,28,17.00
2016,07,19,03,29,17.00
2016,07,19,03,30,17.00
2016,07,19,03,31,17.00
2016,07,19,03,32,17.00
2016,07,19,03,33,17.00
2016,07,19,03,34,16.90
2016,07,19,03,35,16.90
2016,07,19,03,36,16.90
2016,07,19,03,37,16.90
2016,07,19,03,38,16.90
2016,07,19,03,39,16.90
2016,07,19,03,40,16.90
2016,07,19,03,41,16.90
2016,07,19,03,42,16.90
2016,07,19,03,43,16.90
2016,07,19,03,44,16.90
2016,07,19,03,45,16.90
2016,07,19,03,46,16.90
2016,07,19,03,47,16.90
2016,07,19,03,48,16.90
2016,07,19,03,49,16.90
2016,07,19,03,50,16.90
2016,07,19,03,51,16.90
2016,07,19,03,52,16.90
2016,07,19,03,53,16.90
2016,07,19,03,54,16.80
2016,07,19,03,55,16.80
2016,07,19,03,56,16.80
2016,07,19,03,57,16.80
2016,07,19,03,58,16.80
2016,07,19,03,59,16.80
2016,07,19,04,00,16.80
2016,07,19,04,01,16.80
2016,07,19,04,02,16.70
2016,07,19,04,03,16.70
2016,07,19,04,04,16.70
2016,07,19,04,05,16.70
2016,07,19,04,06,16.70
2016,07,19,04,07,16.70
2016,07,19,04,08,16.70
2016,07,19,04,09,16.70
2016,07,19,04,10,16.70
2016,07,19,04,11,16.70
2016,07,19,04,12,16.70
2016,07,19,04,13,16.70
2016,07,19,04,14,16.70
2016,07,19,04,15,16.70
2016,07,19,04,16,16.70
2016,07,19,04,17,16.70
2016,07,19,04,18,16.70
2016,07,19,04,19,16.70
2016,07,19,04,20,16.70
2016,07,19,04,21,16.70
2016,07,19,04,22,16.70
2016,07,19,04,23,16.70
2016,07,19,04,24,16.70
2016,07,19,04,25,16.70
2016,07,19,04,26,16.70
2016,07,19,04,27,16.70
2016,07,19,04,28,16.70
2016,07,19,04,29,16.70
2016,07,19,04,30,16.70
2016,07,19,04,31,16.70
2016,07,19,04,32,16.70
2016,07,19,04,33,16.70
2016,07,19,04,34,16.70
2016,07,19,04,35,16.70
2016,07,19,04,36,16.70
2016,07,19,04,37,16.80
2016,07,19,04,38,16.80
2016,07,19,04,39,16.80
2016,07,19,04,40,16.80
2016,07,19,04,41,16.80
2016,07,19,04,42,16.80
2016,07,19,04,43,16.80
2016,07,19,04,44,16.80
2016,07,19,04,45,16.80
2016,07,19,04,46,16.80
2016,07,19,04,47,16.80
2016,07,19,04,48,16.80
2016,07,19,04,49,16.80
2016,07,19,04,50,16.80
2016,07,19,04,51,16.80
2016,07,19,04,52,16.80
2016,07,19,04,53,16.80
2016,07,19,04,54,16.80
2016,07,19,04,55,16.80
2016,07,19,04,56,16.80
2016,07,19,04,57,16.80
2016,07,19,04,58,16.80
2016,07,19,04,59,16.80
2016,07,19,05,00,16.80
2016,07,19,05,01,16.80
2016,07,19,05,02,16.80
2016,07,19,05,03,16.80
2016,07,19,05,04,16.80
2016,07,19,05,05,16.80
2016,07,19,05,06,16.80
2016,07,19,05,07,16.80
2016,07,19,05,08,16.80
2016,07,19,05,09,16.80
2016,07,19,05,10,16.80
2016,07,19,05,11,16.80
2016,07,19,05,12,16.80
2016,07,19,05,13,16.80
2016,07,19,05,14,16.80
2016,07,19,05,15,16.80
2016,07,19,05,16,16.90
2016,07,19,05,17,16.90
2016,07,19,05,18,16.90
2016,07,19,05,19,16.90
2016,07,19,05,20,16.90
2016,07,19,05,21,16.90
2016,07,19,05,22,16.90
2016,07,19,05,23,16.90
2016,07,19,05,24,16.90
2016,07,19,05,25,16.90
2016,07,19,05,26,16.80
2016,07,19,05,27,16.80
2016,07,19,05,28,16.70
2016,07,19,05,29,16.70
2016,07,19,05,30,16.70
2016,07,19,05,31,16.70
2016,07,19,05,32,16.60
2016,07,19,05,33,16.40
2016,07,19,05,34,16.40
2016,07,19,05,35,16.30
2016,07,19,05,36,16.20
2016,07,19,05,37,16.20
2016,07,19,05,38,16.10
2016,07,19,05,39,16.00
2016,07,19,05,40,15.90
2016,07,19,05,41,15.80
2016,07,19,05,42,15.80
2016,07,19,05,43,15.80
2016,07,19,05,44,15.80
2016,07,19,05,45,15.80
2016,07,19,05,46,15.80
2016,07,19,05,47,15.70
2016,07,19,05,48,15.70
2016,07,19,05,49,15.70
2016,07,19,05,50,15.60
2016,07,19,05,51,15.60
2016,07,19,05,52,15.50
2016,07,19,05,53,15.50
2016,07,19,05,54,15.40
2016,07,19,05,55,15.40
2016,07,19,05,56,15.40
2016,07,19,05,57,15.30
2016,07,19,05,58,15.30
2016,07,19,05,59,15.30
2016,07,19,06,00,15.30
2016,07,19,06,01,15.30
2016,07,19,06,02,15.30
2016,07,19,06,03,15.30
2016,07,19,06,04,15.30
2016,07,19,06,05,15.30
2016,07,19,06,06,15.30
2016,07,19,06,07,15.30
2016,07,19,06,08,15.30
2016,07,19,06,09,15.30
2016,07,19,06,10,15.30
2016,07,19,06,11,15.30
2016,07,19,06,12,15.30
2016,07,19,06,13,15.30
2016,07,19,06,14,15.30
2016,07,19,06,15,15.30
2016,07,19,06,16,15.30
2016,07,19,06,17,15.30
2016,07,19,06,18,15.30
2016,07,19,06,19,15.30
2016,07,19,06,20,15.30
2016,07,19,06,21,15.30
2016,07,19,06,22,15.30
2016,07,19,06,23,15.40
2016,07,19,06,24,15.40
2016,07,19,06,25,15.50
2016,07,19,06,26,15.50
2016,07,19,06,27,15.60
2016,07,19,06,28,15.60
2016,07,19,06,29,15.60
2016,07,19,06,30,15.60
2016,07,19,06,31,15.70
2016,07,19,06,32,15.70
2016,07,19,06,33,15.70
2016,07,19,06,34,15.80
2016,07,19,06,35,15.80
2016,07,19,06,36,15.80
2016,07,19,06,37,15.80
2016,07,19,06,38,15.80
2016,07,19,06,39,15.80
2016,07,19,06,40,15.80
2016,07,19,06,41,15.80
2016,07,19,06,42,15.80
2016,07,19,06,43,15.80
2016,07,19,06,44,15.80
2016,07,19,06,45,15.80
2016,07,19,06,46,15.80
2016,07,19,06,47,15.80
2016,07,19,06,48,15.80
2016,07,19,06,49,15.80
2016,07,19,06,50,15.80
2016,07,19,06,51,15.80
2016,07,19,06,52,15.80
2016,07,19,06,53,15.80
2016,07,19,06,54,15.80
2016,07,19,06,55,15.80
2016,07,19,06,56,15.80
2016,07,19,06,57,15.80
2016,07,19,06,58,15.90
2016,07,19,06,59,15.90
2016,07,19,07,00,15.90
2016,07,19,07,01,15.90
2016,07,19,07,02,15.90
2016,07,19,07,03,16.10
2016,07,19,07,04,16.10
2016,07,19,07,05,16.10
2016,07,19,07,06,16.10
2016,07,19,07,07,16.10
2016,07,19,07,08,16.10
2016,07,19,07,09,16.10
2016,07,19,07,10,16.10
2016,07,19,07,11,16.20
2016,07,19,07,12,16.20
2016,07,19,07,13,16.20
2016,07,19,07,14,16.30
2016,07,19,07,15,16.30
2016,07,19,07,16,16.30
2016,07,19,07,17,16.30
2016,07,19,07,18,16.30
2016,07,19,07,19,16.40
2016,07,19,07,20,16.40
2016,07,19,07,21,16.40
2016,07,19,07,22,16.40
2016,07,19,07,23,16.40
2016,07,19,07,24,16.40
2016,07,19,07,25,16.40
2016,07,19,07,26,16.40
2016,07,19,07,27,16.40
2016,07,19,07,28,16.40
2016,07,19,07,29,16.40
2016,07,19,07,30,16.40
2016,07,19,07,31,16.40
2016,07,19,07,32,16.30
2016,07,19,07,33,16.30
2016,07,19,07,34,16.30
2016,07,19,07,35,16.30
2016,07,19,07,36,16.20
2016,07,19,07,37,16.20
2016,07,19,07,38,16.20
2016,07,19,07,39,16.20
2016,07,19,07,40,16.20
2016,07,19,07,41,16.20
2016,07,19,07,42,16.20
2016,07,19,07,43,16.20
2016,07,19,07,44,16.10
2016,07,19,07,45,16.10
2016,07,19,07,46,16.10
2016,07,19,07,47,16.10
2016,07,19,07,48,16.10
2016,07,19,07,49,16.10
2016,07,19,07,50,16.10
2016,07,19,07,51,16.10
2016,07,19,07,52,16.10
2016,07,19,07,53,16.10
2016,07,19,07,54,16.10
2016,07,19,07,55,16.10
2016,07,19,07,56,16.10
2016,07,19,07,57,16.10
2016,07,19,07,58,16.20
2016,07,19,07,59,16.20
2016,07,19,08,00,16.20
2016,07,19,08,01,16.30
2016,07,19,08,02,16.30
2016,07,19,08,03,16.30
2016,07,19,08,04,16.40
2016,07,19,08,05,16.40
2016,07,19,08,06,16.40
2016,07,19,08,07,16.40
2016,07,19,08,08,16.50
2016,07,19,08,09,16.60
2016,07,19,08,10,16.70
2016,07,19,08,11,16.70
2016,07,19,08,12,16.70
2016,07,19,08,13,16.70
2016,07,19,08,14,16.80
2016,07,19,08,15,16.80
2016,07,19,08,16,16.90
2016,07,19,08,17,16.90
2016,07,19,08,18,16.90
2016,07,19,08,19,17.00
2016,07,19,08,20,17.00
2016,07,19,08,21,17.00
2016,07,19,08,22,17.00
2016,07,19,08,23,16.90
2016,07,19,08,24,16.70
2016,07,19,08,25,16.70
2016,07,19,08,26,16.60
2016,07,19,08,27,16.50
2016,07,19,08,28,16.40
2016,07,19,08,29,16.30
2016,07,19,08,30,16.20
2016,07,19,08,31,16.20
2016,07,19,08,32,16.10
2016,07,19,08,33,16.10
2016,07,19,08,34,16.10
2016,07,19,08,35,16.10
2016,07,19,08,36,16.10
2016,07,19,08,37,16.00
2016,07,19,08,38,15.90
2016,07,19,08,39,15.80
2016,07,19,08,40,15.80
2016,07,19,08,41,15.80
2016,07,19,08,42,15.80
2016,07,19,08,43,15.80
2016,07,19,08,44,15.80
2016,07,19,08,45,15.80
2016,07,19,08,46,15.80
2016,07,19,08,47,15.80
2016,07,19,08,48,15.80
2016,07,19,08,49,15.80
2016,07,19,08,50,15.80
2016,07,19,08,51,15.80
2016,07,19,08,52,15.80
2016,07,19,08,53,15.80
2016,07,19,08,54,15.80
2016,07,19,08,55,15.80
2016,07,19,08,56,15.80
2016,07,19,08,57,15.80
2016,07,19,08,58,15.90
2016,07,19,08,59,15.90
2016,07,19,09,00,16.00
2016,07,19,09,01,15.90
2016,07,19,09,02,15.90
2016,07,19,09,03,15.80
2016,07,19,09,04,15.80
2016,07,19,09,05,15.70
2016,07,19,09,06,15.60
2016,07,19,09,07,15.60
2016,07,19,09,08,15.50
2016,07,19,09,09,15.50
2016,07,19,09,10,15.40
2016,07,19,09,11,15.40
2016,07,19,09,12,15.30
2016,07,19,09,13,15.30
2016,07,19,09,14,15.30
2016,07,19,09,15,15.30
2016,07,19,09,16,15.30
2016,07,19,09,17,15.20
2016,07,19,09,18,15.20
2016,07,19,09,19,15.10
2016,07,19,09,20,15.10
2016,07,19,09,21,15.10
2016,07,19,09,22,15.10
2016,07,19,09,23,15.10
2016,07,19,09,24,15.10
2016,07,19,09,25,15.10
2016,07,19,09,26,15.00
2016,07,19,09,27,15.00
2016,07,19,09,28,15.00
2016,07,19,09,29,14.90
2016,07,19,09,30,14.80
2016,07,19,09,31,14.80
2016,07,19,09,32,14.80
2016,07,19,09,33,14.80
2016,07,19,09,34,14.80
2016,07,19,09,35,14.80
2016,07,19,09,36,14.80
2016,07,19,09,37,14.90
2016,07,19,09,38,14.80
2016,07,19,09,39,14.90
2016,07,19,09,40,14.90
2016,07,19,09,41,14.90
2016,07,19,09,42,14.90
2016,07,19,09,43,14.90
2016,07,19,09,44,15.00
2016,07,19,09,45,15.00
2016,07,19,09,46,14.90
2016,07,19,09,47,14.90
2016,07,19,09,48,14.90
2016,07,19,09,49,14.90
2016,07,19,09,50,14.90
2016,07,19,09,51,14.90
2016,07,19,09,52,14.90
2016,07,19,09,53,14.90
2016,07,19,09,54,14.90
2016,07,19,09,55,15.00
2016,07,19,09,56,15.00
2016,07,19,09,57,15.10
2016,07,19,09,58,15.10
2016,07,19,09,59,15.20
2016,07,19,10,00,15.30
2016,07,19,10,01,15.30
2016,07,19,10,02,15.30
2016,07,19,10,03,15.40
2016,07,19,10,04,15.40
2016,07,19,10,05,15.40
2016,07,19,10,06,15.50
2016,07,19,10,07,15.50
2016,07,19,10,08,15.50
2016,07,19,10,09,15.50
2016,07,19,10,10,15.50
2016,07,19,10,11,15.50
2016,07,19,10,12,15.50
2016,07,19,10,13,15.50
2016,07,19,10,14,15.50
2016,07,19,10,15,15.40
2016,07,19,10,16,15.40
2016,07,19,10,17,15.40
2016,07,19,10,18,15.40
2016,07,19,10,19,15.50
2016,07,19,10,20,15.60
2016,07,19,10,21,15.70
2016,07,19,10,22,15.70
2016,07,19,10,23,15.80
2016,07,19,10,24,15.80
2016,07,19,10,25,15.80
2016,07,19,10,26,15.80
2016,07,19,10,27,15.90
2016,07,19,10,28,15.90
2016,07,19,10,29,16.00
2016,07,19,10,30,16.10
2016,07,19,10,31,16.10
2016,07,19,10,32,16.10
2016,07,19,10,33,16.10
2016,07,19,10,34,16.10
2016,07,19,10,35,15.90
2016,07,19,10,36,15.80
2016,07,19,10,37,15.80
2016,07,19,10,38,15.80
2016,07,19,10,39,15.80
2016,07,19,10,40,15.80
2016,07,19,10,41,15.80
2016,07,19,10,42,15.80
2016,07,19,10,43,15.70
2016,07,19,10,44,15.70
2016,07,19,10,45,15.70
2016,07,19,10,46,15.70
2016,07,19,10,47,15.80
2016,07,19,10,48,15.80
2016,07,19,10,49,15.80
2016,07,19,10,50,15.80
2016,07,19,10,51,15.80
2016,07,19,10,52,15.80
2016,07,19,10,53,15.80
2016,07,19,10,54,15.80
2016,07,19,10,55,15.80
2016,07,19,10,56,15.80
2016,07,19,10,57,15.80
2016,07,19,10,58,15.80
2016,07,19,10,59,15.80
2016,07,19,11,00,15.80
2016,07,19,11,01,15.80
2016,07,19,11,02,15.80
2016,07,19,11,03,15.80
2016,07,19,11,04,15.80
2016,07,19,11,05,15.90
2016,07,19,11,06,16.10
2016,07,19,11,07,16.10
2016,07,19,11,08,16.10
2016,07,19,11,09,16.00
2016,07,19,11,10,16.00
2016,07,19,11,11,16.10
2016,07,19,11,12,16.10
2016,07,19,11,13,16.00
2016,07,19,11,14,15.90
2016,07,19,11,15,15.80
2016,07,19,11,16,15.80
2016,07,19,11,17,15.80
2016,07,19,11,18,15.80
2016,07,19,11,19,15.90
2016,07,19,11,20,16.00
2016,07,19,11,21,16.10
2016,07,19,11,22,16.20
2016,07,19,11,23,16.20
2016,07,19,11,24,16.20
2016,07,19,11,25,16.10
2016,07,19,11,26,16.10
2016,07,19,11,27,16.10
2016,07,19,11,28,16.10
2016,07,19,11,29,16.10
2016,07,19,11,30,16.10
2016,07,19,11,31,16.10
2016,07,19,11,32,16.20
2016,07,19,11,33,16.30
2016,07,19,11,34,16.30
2016,07,19,11,35,16.40
2016,07,19,11,36,16.50
2016,07,19,11,37,16.70
2016,07,19,11,38,16.70
2016,07,19,11,39,16.80
2016,07,19,11,40,16.80
2016,07,19,11,41,16.70
2016,07,19,11,42,16.60
2016,07,19,11,43,16.60
2016,07,19,11,44,16.40
2016,07,19,11,45,16.40
2016,07,19,11,46,16.50
2016,07,19,11,47,16.60
2016,07,19,11,48,16.70
2016,07,19,11,49,16.80
2016,07,19,11,50,16.80
2016,07,19,11,51,16.90
2016,07,19,11,52,17.00
2016,07,19,11,53,17.10
2016,07,19,11,54,17.10
2016,07,19,11,55,17.10
2016,07,19,11,56,17.00
2016,07,19,11,57,16.90
2016,07,19,11,58,16.90
2016,07,19,11,59,16.80
2016,07,19,12,00,16.90
2016,07,19,12,01,16.90
2016,07,19,12,02,17.10
2016,07,19,12,03,17.30
2016,07,19,12,04,17.40
2016,07,19,12,05,17.40
2016,07,19,12,06,17.40
2016,07,19,12,07,17.50
2016,07,19,12,08,17.60
2016,07,19,12,09,17.60
2016,07,19,12,10,17.60
2016,07,19,12,11,17.60
2016,07,19,12,12,17.70
2016,07,19,12,13,17.70
2016,07,19,12,14,17.70
2016,07,19,12,15,17.70
2016,07,19,12,16,17.80
2016,07,19,12,17,17.80
2016,07,19,12,18,17.80
2016,07,19,12,19,17.90
2016,07,19,12,20,18.10
2016,07,19,12,21,18.30
2016,07,19,12,22,18.50
2016,07,19,12,23,18.60
2016,07,19,12,24,18.80
2016,07,19,12,25,18.80
2016,07,19,12,26,18.70
2016,07,19,12,27,18.50
2016,07,19,12,28,18.30
2016,07,19,12,29,18.30
2016,07,19,12,30,18.20
2016,07,19,12,31,18.20
2016,07,19,12,32,18.20
2016,07,19,12,33,18.20
2016,07,19,12,34,18.10
2016,07,19,12,35,18.00
2016,07,19,12,36,17.90
2016,07,19,12,37,17.80
2016,07,19,12,38,17.80
2016,07,19,12,39,17.90
2016,07,19,12,40,17.90
2016,07,19,12,41,17.90
2016,07,19,12,42,17.80
2016,07,19,12,43,17.80
2016,07,19,12,44,17.80
2016,07,19,12,45,17.80
2016,07,19,12,46,17.70
2016,07,19,12,47,17.80
2016,07,19,12,48,17.80
2016,07,19,12,49,17.80
2016,07,19,12,50,18.00
2016,07,19,12,51,18.20
2016,07,19,12,52,18.20
2016,07,19,12,53,18.20
2016,07,19,12,54,18.20
2016,07,19,12,55,18.20
2016,07,19,12,56,18.30
2016,07,19,12,57,18.50
2016,07,19,12,58,18.60
2016,07,19,12,59,18.70
2016,07,19,13,00,18.90
2016,07,19,13,01,19.00
2016,07,19,13,02,19.20
2016,07,19,13,03,19.30
2016,07,19,13,04,19.40
2016,07,19,13,05,19.50
2016,07,19,13,06,19.70
2016,07,19,13,07,19.60
2016,07,19,13,08,19.40
2016,07,19,13,09,19.20
2016,07,19,13,10,19.00
2016,07,19,13,11,18.90
2016,07,19,13,12,18.80
2016,07,19,13,13,18.80
2016,07,19,13,14,18.90
2016,07,19,13,15,18.90
2016,07,19,13,16,18.90
2016,07,19,13,17,18.90
2016,07,19,13,18,18.90
2016,07,19,13,19,18.90
2016,07,19,13,20,19.10
2016,07,19,13,21,19.20
2016,07,19,13,22,19.40
2016,07,19,13,23,19.60
2016,07,19,13,24,19.70
2016,07,19,13,25,19.90
2016,07,19,13,26,19.90
2016,07,19,13,27,19.90
2016,07,19,13,28,20.00
2016,07,19,13,29,20.20
2016,07,19,13,30,20.20
2016,07,19,13,31,20.30
2016,07,19,13,32,20.10
2016,07,19,13,33,19.90
2016,07,19,13,34,19.90
2016,07,19,13,35,19.90
2016,07,19,13,36,19.90
2016,07,19,13,37,19.80
2016,07,19,13,38,19.60
2016,07,19,13,39,19.50
2016,07,19,13,40,19.50
2016,07,19,13,41,19.50
2016,07,19,13,42,19.50
2016,07,19,13,43,19.60
2016,07,19,13,44,19.50
2016,07,19,13,45,19.50
2016,07,19,13,46,19.50
2016,07,19,13,47,19.60
2016,07,19,13,48,19.60
2016,07,19,13,49,19.40
2016,07,19,13,50,19.40
2016,07,19,13,51,19.40
2016,07,19,13,52,19.40
2016,07,19,13,53,19.30
2016,07,19,13,54,19.10
2016,07,19,13,55,19.10
2016,07,19,13,56,19.00
2016,07,19,13,57,18.90
2016,07,19,13,58,18.80
2016,07,19,13,59,18.90
2016,07,19,14,00,19.10
2016,07,19,14,01,19.40
2016,07,19,14,02,19.60
2016,07,19,14,03,19.70
2016,07,19,14,04,19.80
2016,07,19,14,05,19.90
2016,07,19,14,06,20.10
2016,07,19,14,07,19.90
2016,07,19,14,08,19.60
2016,07,19,14,09,19.40
2016,07,19,14,10,19.20
2016,07,19,14,11,19.10
2016,07,19,14,12,19.10
2016,07,19,14,13,19.10
2016,07,19,14,14,19.10
2016,07,19,14,15,19.20
2016,07,19,14,16,19.20
2016,07,19,14,17,19.20
2016,07,19,14,18,19.20
2016,07,19,14,19,19.30
2016,07,19,14,20,19.30
2016,07,19,14,21,19.20
2016,07,19,14,22,19.20
2016,07,19,14,23,19.40
2016,07,19,14,24,19.50
2016,07,19,14,25,19.70
2016,07,19,14,26,19.80
2016,07,19,14,27,19.60
2016,07,19,14,28,19.60
2016,07,19,14,29,19.50
2016,07,19,14,30,19.60
2016,07,19,14,31,19.70
2016,07,19,14,32,19.80
2016,07,19,14,33,19.90
2016,07,19,14,34,19.90
2016,07,19,14,35,19.90
2016,07,19,14,36,19.90
2016,07,19,14,37,19.90
2016,07,19,14,38,19.90
2016,07,19,14,39,19.80
2016,07,19,14,40,19.80
2016,07,19,14,41,19.90
2016,07,19,14,42,19.90
2016,07,19,14,43,19.90
2016,07,19,14,44,19.90
2016,07,19,14,45,19.90
2016,07,19,14,46,19.90
2016,07,19,14,47,20.00
2016,07,19,14,48,20.10
2016,07,19,14,49,20.10
2016,07,19,14,50,20.20
2016,07,19,14,51,20.20
2016,07,19,14,52,20.40
2016,07,19,14,53,20.50
2016,07,19,14,54,20.50
2016,07,19,14,55,20.60
2016,07,19,14,56,20.70
2016,07,19,14,57,20.80
2016,07,19,14,58,20.80
2016,07,19,14,59,20.80
2016,07,19,15,00,20.80
2016,07,19,15,01,20.80
2016,07,19,15,02,20.80
2016,07,19,15,03,20.90
2016,07,19,15,04,20.80
2016,07,19,15,05,20.80
2016,07,19,15,06,20.60
2016,07,19,15,07,20.50
2016,07,19,15,08,20.30
2016,07,19,15,09,20.30
2016,07,19,15,10,20.20
2016,07,19,15,11,20.10
2016,07,19,15,12,19.90
2016,07,19,15,13,19.90
2016,07,19,15,14,19.90
2016,07,19,15,15,19.80
2016,07,19,15,16,19.90
2016,07,19,15,17,19.90
2016,07,19,15,18,20.00
2016,07,19,15,19,20.20
2016,07,19,15,20,20.30
2016,07,19,15,21,20.50
2016,07,19,15,22,20.50
2016,07,19,15,23,20.60
2016,07,19,15,24,20.60
2016,07,19,15,25,20.60
2016,07,19,15,26,20.70
2016,07,19,15,27,20.70
2016,07,19,15,28,20.80
2016,07,19,15,29,20.80
2016,07,19,15,30,20.90
2016,07,19,15,31,20.90
2016,07,19,15,32,20.90
2016,07,19,15,33,21.00
2016,07,19,15,34,21.20
2016,07,19,15,35,21.30
2016,07,19,15,36,21.50
2016,07,19,15,37,21.70
2016,07,19,15,38,21.90
2016,07,19,15,39,22.10
2016,07,19,15,40,22.30
2016,07,19,15,41,22.40
2016,07,19,15,42,22.40
2016,07,19,15,43,22.50
2016,07,19,15,44,22.50
2016,07,19,15,45,22.50
2016,07,19,15,46,22.50
2016,07,19,15,47,22.60
2016,07,19,15,48,22.70
2016,07,19,15,49,22.80
2016,07,19,15,50,22.90
2016,07,19,15,51,22.80
2016,07,19,15,52,22.60
2016,07,19,15,53,22.50
2016,07,19,15,54,22.50
2016,07,19,15,55,22.50
2016,07,19,15,56,22.60
2016,07,19,15,57,22.40
2016,07,19,15,58,22.30
2016,07,19,15,59,22.20
2016,07,19,16,00,22.10
2016,07,19,16,01,22.00
2016,07,19,16,02,21.90
2016,07,19,16,03,21.80
2016,07,19,16,04,21.60
2016,07,19,16,05,21.60
2016,07,19,16,06,21.60
2016,07,19,16,07,21.70
2016,07,19,16,08,21.80
2016,07,19,16,09,21.90
2016,07,19,16,10,22.10
2016,07,19,16,11,22.20
2016,07,19,16,12,22.40
2016,07,19,16,13,22.60
2016,07,19,16,14,22.60
2016,07,19,16,15,22.70
2016,07,19,16,16,22.70
2016,07,19,16,17,22.60
2016,07,19,16,18,22.60
2016,07,19,16,19,22.50
2016,07,19,16,20,22.40
2016,07,19,16,21,22.40
2016,07,19,16,22,22.30
2016,07,19,16,23,22.20
2016,07,19,16,24,22.20
2016,07,19,16,25,22.20
2016,07,19,16,26,22.20
2016,07,19,16,27,22.10
2016,07,19,16,28,22.10
2016,07,19,16,29,22.10
2016,07,19,16,30,22.20
2016,07,19,16,31,22.20
2016,07,19,16,32,22.30
2016,07,19,16,33,22.50
2016,07,19,16,34,22.60
2016,07,19,16,35,22.80
2016,07,19,16,36,22.80
2016,07,19,16,37,22.90
2016,07,19,16,38,22.90
2016,07,19,16,39,22.90
2016,07,19,16,40,22.90
2016,07,19,16,41,22.90
2016,07,19,16,42,22.90
2016,07,19,16,43,22.90
2016,07,19,16,44,22.90
2016,07,19,16,45,22.90
2016,07,19,16,46,22.90
2016,07,19,16,47,22.90
2016,07,19,16,48,22.90
2016,07,19,16,49,22.90
2016,07,19,16,50,23.00
2016,07,19,16,51,23.10
2016,07,19,16,52,23.20
2016,07,19,16,53,23.20
2016,07,19,16,54,23.00
2016,07,19,16,55,22.80
2016,07,19,16,56,22.60
2016,07,19,16,57,22.60
2016,07,19,16,58,22.60
2016,07,19,16,59,22.70
2016,07,19,17,00,22.70
2016,07,19,17,01,22.80
2016,07,19,17,02,22.80
2016,07,19,17,03,22.80
2016,07,19,17,04,22.80
2016,07,19,17,05,22.80
2016,07,19,17,06,22.70
2016,07,19,17,07,22.70
2016,07,19,17,08,22.70
2016,07,19,17,09,22.60
2016,07,19,17,10,22.60
2016,07,19,17,11,22.50
2016,07,19,17,12,22.50
2016,07,19,17,13,22.50
2016,07,19,17,14,22.50
2016,07,19,17,15,22.50
2016,07,19,17,16,22.50
2016,07,19,17,17,22.50
2016,07,19,17,18,22.50
2016,07,19,17,19,22.50